{"data":{"norad_id":66245,"epoch":"2026-05-25T02:46:20.144352Z","epoch_age_seconds":68614,"freshness":"FRESH","line1":"1 66245U 25245M   26145.11551093  .00012028  00000+0  41748-3 0  9993","line2":"2 66245  53.1606 289.1841 0001092 101.5978 258.5145 15.30206459 32901","mean_motion":15.30206459,"eccentricity":0.0001092,"inclination_deg":53.1606,"raan_deg":289.1841,"arg_perigee_deg":101.5978,"mean_anomaly_deg":258.5145,"bstar":0.00041748,"rev_number":3290,"period_min":94.104948487869,"perigee_km":474.44740013738,"apogee_km":475.94416801742,"semimajor_km":6853.3327840774,"source":"CELESTRAK","updated_at":"2026-05-25T13:38:21.135735Z"}}